| time (UTC) | temp F | wind direction | speed MPH | gust MPH | rain 1hr in | rain 24hr in | rain mn in | humidity % | barometer mb |
| 20260505003001 | 47 | 265 | 1.0 | 8.0 | 0.00 | 0.00 | 0.00 | 80 | 1006.2 |
| 20260505001627 | 46 | 244 | 2.0 | 8.0 | 0.00 | 0.00 | 0.00 | 80 | 1006.5 |
| 20260505000109 | 46 | 271 | 2.0 | 7.0 | 0.00 | 0.00 | 0.00 | 80 | 1006.7 |
| 20260504234558 | 47 | 271 | 2.0 | 9.0 | 0.00 | 0.00 | 0.00 | 80 | 1006.7 |
| 20260504233103 | 47 | 269 | 2.0 | 7.0 | 0.00 | 0.00 | 0.00 | 79 | 1006.9 |
| 20260504231547 | 47 | 262 | 0.0 | 6.0 | 0.00 | 0.00 | 0.00 | 79 | 1006.9 |
| 20260504230045 | 48 | 261 | 0.0 | 3.0 | 0.00 | 0.00 | 0.00 | 77 | 1007.0 |
| 20260504224543 | 48 | 256 | 0.0 | 4.0 | 0.00 | 0.00 | 0.00 | 76 | 1007.2 |
| 20260504223038 | 49 | 251 | 1.0 | 3.0 | 0.00 | 0.00 | 0.00 | 75 | 1007.3 |
| 20260504221535 | 49 | 227 | 4.0 | 10.0 | 0.00 | 0.00 | 0.00 | 74 | 1007.3 |
| 20260504220034 | 49 | 249 | 1.0 | 6.0 | 0.00 | 0.00 | 0.00 | 73 | 1007.4 |
| 20260504214530 | 50 | 194 | 3.0 | 12.0 | 0.00 | 0.00 | 0.00 | 72 | 1007.4 |
| 20260504213032 | 50 | 272 | 1.0 | 11.0 | 0.00 | 0.00 | 0.00 | 72 | 1007.5 |
| 20260504211525 | 50 | 259 | 0.0 | 8.0 | 0.00 | 0.00 | 0.00 | 72 | 1007.7 |
| 20260504210024 | 50 | 268 | 2.0 | 10.0 | 0.00 | 0.00 | 0.00 | 72 | 1007.7 |
| 20260504204525 | 50 | 277 | 1.0 | 8.0 | 0.00 | 0.00 | 0.00 | 72 | 1007.7 |
| 20260504203057 | 51 | 290 | 1.0 | 6.0 | 0.00 | 0.00 | 0.00 | 72 | 1007.8 |
| 20260504201553 | 51 | 264 | 1.0 | 8.0 | 0.00 | 0.00 | 0.00 | 71 | 1007.8 |
| 20260504200052 | 51 | 300 | 3.0 | 11.0 | 0.00 | 0.00 | 0.00 | 72 | 1007.8 |
| 20260504194558 | 50 | 202 | 2.0 | 8.0 | 0.00 | 0.00 | 0.00 | 70 | 1007.8 |
| 20260504193048 | 50 | 271 | 2.0 | 6.0 | 0.00 | 0.00 | 0.00 | 67 | 1007.7 |
| 20260504191602 | 50 | 252 | 3.0 | 9.0 | 0.00 | 0.00 | 0.00 | 65 | 1007.7 |
| 20260504190014 | 50 | 265 | 2.0 | 9.0 | 0.00 | 0.00 | 0.00 | 64 | 1007.7 |
| 20260504184511 | 50 | 242 | 0.0 | 4.0 | 0.00 | 0.00 | 0.00 | 64 | 1007.6 |
| 20260504183038 | 51 | 267 | 2.0 | 6.0 | 0.00 | 0.00 | 0.00 | 62 | 1007.6 |
| 20260504181538 | 51 | 281 | 1.0 | 7.0 | 0.00 | 0.00 | 0.00 | 60 | 1007.5 |
| 20260504180033 | 52 | 232 | 2.0 | 6.0 | 0.00 | 0.00 | 0.00 | 58 | 1007.4 |
| 20260504174529 | 53 | 248 | 2.0 | 7.0 | 0.00 | 0.00 | 0.00 | 56 | 1007.3 |
| 20260504173027 | 53 | 261 | 2.0 | 8.0 | 0.00 | 0.00 | 0.00 | 58 | 1007.3 |
| 20260504171539 | 54 | 271 | 2.0 | 6.0 | 0.00 | 0.00 | 0.00 | 56 | 1007.2 |
| 20260504090112 | 66 | 277 | 6.0 | 15.0 | 0.00 | 0.00 | 0.00 | 49 | 1008.9 |
| 20260504081550 | 61 | 234 | 3.0 | 8.0 | 0.00 | 0.00 | 0.00 | 58 | 1008.7 |
| 20260504044545 | 49 | 285 | 0.0 | 3.0 | 0.00 | 0.00 | 0.00 | 72 | 1007.7 |
| 20260504043050 | 49 | 292 | 0.0 | 3.0 | 0.00 | 0.00 | 0.00 | 71 | 1007.5 |
| 20260504041544 | 49 | 274 | 0.0 | 4.0 | 0.00 | 0.00 | 0.00 | 71 | 1007.5 |
| 20260504040047 | 49 | 277 | 1.0 | 3.0 | 0.00 | 0.00 | 0.00 | 70 | 1007.5 |
| 20260504034543 | 49 | 298 | 1.0 | 4.0 | 0.00 | 0.00 | 0.00 | 71 | 1007.5 |
| 20260504033014 | 49 | 304 | 1.0 | 4.0 | 0.00 | 0.00 | 0.00 | 70 | 1007.5 |
| 20260504031513 | 49 | 323 | 2.0 | 4.0 | 0.00 | 0.00 | 0.00 | 71 | 1007.5 |
| 20260504030015 | 48 | 292 | 0.0 | 4.0 | 0.00 | 0.00 | 0.00 | 71 | 1007.6 |
| 20260504024507 | 48 | 305 | 1.0 | 4.0 | 0.00 | 0.00 | 0.00 | 74 | 1007.6 |
| 20260504023006 | 48 | 299 | 1.0 | 3.0 | 0.00 | 0.00 | 0.00 | 75 | 1007.7 |
| 20260504021508 | 48 | 292 | 1.0 | 5.0 | 0.00 | 0.00 | 0.00 | 75 | 1007.8 |
| 20260504020004 | 48 | 328 | 1.0 | 4.0 | 0.00 | 0.00 | 0.00 | 75 | 1007.8 |
| 20260504014505 | 48 | 323 | 2.0 | 4.0 | 0.00 | 0.00 | 0.00 | 75 | 1007.8 |
| 20260504013003 | 49 | 329 | 2.0 | 5.0 | 0.00 | 0.00 | 0.00 | 74 | 1007.7 |
| 20260504011506 | 49 | 355 | 2.0 | 5.0 | 0.00 | 0.00 | 0.00 | 73 | 1007.8 |
| 20260504010031 | 49 | 277 | 1.0 | 4.0 | 0.00 | 0.00 | 0.00 | 73 | 1007.9 |
| 20260504004530 | 50 | 325 | 0.0 | 4.0 | 0.00 | 0.00 | 0.00 | 72 | 1007.9 |